• In Czech Republic
  • List of Countries
  • For 7 days
  • Water Temperature
  • Satellite Maps
  • Weather Map
  • Weather Widgets
  • user-avatar
    Login

    Hourly Weather Kulshevo

    Today, 26 September, Wednesday

    Time Temperature Precipitation Wind Pressure Humidity
    00:00 +1°C° 0 mm 4 mps 746 mmHg 84%
    01:00 +1°C° 0 mm 4 mps 746 mmHg 84%
    02:00 +1°C° 0 mm 4 mps 747 mmHg 84%
    03:00 +1°C° 0 mm 3 mps 747 mmHg 86%
    04:00 +1°C° 0 mm 3 mps 747 mmHg 87%
    05:00 0°C° 0 mm 3 mps 748 mmHg 88%
    06:00 +1°C° 0 mm 3 mps 748 mmHg 86%
    07:00 +2°C° 0 mm 3 mps 749 mmHg 83%
    08:00 +3°C° 0 mm 3 mps 749 mmHg 80%
    09:00 +5°C° 0 mm 4 mps 749 mmHg 75%
    10:00 +6°C° 0 mm 4 mps 749 mmHg 70%
    11:00 +8°C° 0 mm 4 mps 749 mmHg 64%
    12:00 +9°C° 0 mm 5 mps 748 mmHg 62%
    13:00 +9°C° 0 mm 5 mps 748 mmHg 60%
    14:00 +10°C° 0 mm 5 mps 747 mmHg 57%
    15:00 +9°C° 0 mm 5 mps 746 mmHg 60%
    16:00 +8°C° 0 mm 5 mps 746 mmHg 63%
    17:00 +8°C° 0 mm 5 mps 745 mmHg 66%
    18:00 +7°C° 0.3 mm 6 mps 744 mmHg 70%
    19:00 +7°C° 0.3 mm 6 mps 743 mmHg 74%
    20:00 +5°C° 0.3 mm 7 mps 742 mmHg 79%
    21:00 +5°C° 1 mm 8 mps 741 mmHg 81%
    22:00 +5°C° 1 mm 8 mps 740 mmHg 84%
    23:00 +3°C° 1 mm 9 mps 738 mmHg 86%

    Tomorrow, 27 September, Thursday

    Time Temperature Precipitation Wind Pressure Humidity
    00:00 +3°C° 1 mm 9 mps 737 mmHg 87%
    01:00 +3°C° 1 mm 9 mps 736 mmHg 87%
    02:00 +5°C° 1 mm 9 mps 735 mmHg 88%
    03:00 +5°C° 0.8 mm 8 mps 734 mmHg 89%
    04:00 +5°C° 0.8 mm 8 mps 734 mmHg 89%
    05:00 +6°C° 0.8 mm 7 mps 733 mmHg 90%
    06:00 +6°C° 0.2 mm 7 mps 734 mmHg 88%
    07:00 +6°C° 0.2 mm 7 mps 734 mmHg 85%
    08:00 +8°C° 0.2 mm 6 mps 734 mmHg 83%
    09:00 +8°C° 0 mm 7 mps 735 mmHg 77%
    10:00 +9°C° 0 mm 7 mps 735 mmHg 70%
    11:00 +9°C° 0 mm 8 mps 735 mmHg 64%
    12:00 +9°C° 0.2 mm 8 mps 736 mmHg 64%
    13:00 +9°C° 0.2 mm 7 mps 736 mmHg 64%
    14:00 +9°C° 0.2 mm 7 mps 736 mmHg 64%
    15:00 +9°C° 0.1 mm 6 mps 736 mmHg 67%
    16:00 +8°C° 0.1 mm 5 mps 737 mmHg 70%
    17:00 +8°C° 0.1 mm 4 mps 737 mmHg 73%
    18:00 +7°C° 0 mm 4 mps 737 mmHg 74%
    19:00 +7°C° 0 mm 4 mps 737 mmHg 75%
    20:00 +6°C° 0 mm 4 mps 738 mmHg 75%
    21:00 +6°C° 0 mm 4 mps 738 mmHg 76%
    22:00 +6°C° 0 mm 4 mps 737 mmHg 76%
    23:00 +5°C° 0 mm 4 mps 737 mmHg 77%

    Day after tomorrow, 28 September, Friday

    Time Temperature Precipitation Wind Pressure Humidity
    00:00 +6°C° 0 mm 4 mps 736 mmHg 78%
    01:00 +6°C° 0 mm 5 mps 736 mmHg 78%
    02:00 +7°C° 0 mm 5 mps 735 mmHg 79%
    03:00 +8°C° 0.3 mm 6 mps 733 mmHg 81%
    04:00 +9°C° 0.3 mm 8 mps 732 mmHg 84%
    05:00 +10°C° 0.3 mm 9 mps 731 mmHg 86%
    06:00 +11°C° 0.4 mm 9 mps 730 mmHg 86%
    07:00 +11°C° 0.4 mm 9 mps 730 mmHg 86%
    08:00 +12°C° 0.4 mm 9 mps 729 mmHg 86%
    09:00 +12°C° 1 mm 9 mps 730 mmHg 84%
    10:00 +11°C° 1 mm 8 mps 730 mmHg 82%
    11:00 +11°C° 1 mm 8 mps 731 mmHg 80%
    12:00 +10°C° 0.2 mm 7 mps 732 mmHg 79%
    13:00 +9°C° 0.2 mm 7 mps 733 mmHg 78%
    14:00 +8°C° 0.2 mm 6 mps 734 mmHg 77%
    15:00 +7°C° 0 mm 5 mps 735 mmHg 77%
    16:00 +6°C° 0 mm 4 mps 736 mmHg 78%
    17:00 +7°C° 0 mm 3 mps 737 mmHg 78%
    18:00 +5°C° 0 mm 3 mps 738 mmHg 81%
    19:00 +4°C° 0 mm 3 mps 739 mmHg 84%
    20:00 +4°C° 0 mm 3 mps 739 mmHg 87%
    21:00 +3°C° 0 mm 3 mps 740 mmHg 88%
    22:00 +3°C° 0 mm 3 mps 740 mmHg 89%
    23:00 +3°C° 0 mm 3 mps 741 mmHg 91%

    29 September, Saturday

    Time Temperature Precipitation Wind Pressure Humidity
    00:00 +4°C° 0 mm 2 mps 741 mmHg 92%
    01:00 +3°C° 0 mm 2 mps 742 mmHg 93%
    02:00 +3°C° 0 mm 2 mps 742 mmHg 95%
    03:00 +2°C° 0 mm 2 mps 743 mmHg 94%
    04:00 +2°C° 0 mm 2 mps 743 mmHg 93%
    05:00 +1°C° 0 mm 2 mps 744 mmHg 93%
    06:00 +2°C° 0 mm 2 mps 744 mmHg 86%
    07:00 +3°C° 0 mm 2 mps 745 mmHg 80%
    08:00 +4°C° 0 mm 2 mps 745 mmHg 73%
    09:00 +6°C° 0 mm 2 mps 746 mmHg 67%
    10:00 +7°C° 0 mm 2 mps 746 mmHg 60%
    11:00 +8°C° 0 mm 2 mps 746 mmHg 53%
    12:00 +9°C° 0 mm 2 mps 746 mmHg 52%
    13:00 +9°C° 0 mm 2 mps 746 mmHg 52%
    14:00 +9°C° 0 mm 2 mps 746 mmHg 51%
    15:00 +8°C° 0 mm 2 mps 747 mmHg 57%
    16:00 +7°C° 0 mm 2 mps 747 mmHg 63%
    17:00 +7°C° 0 mm 1 mps 747 mmHg 69%
    18:00 +6°C° 0 mm 1 mps 748 mmHg 72%
    19:00 +5°C° 0 mm 1 mps 748 mmHg 75%
    20:00 +4°C° 0 mm 1 mps 749 mmHg 78%
    21:00 +3°C° 0 mm 1 mps 749 mmHg 79%
    22:00 +3°C° 0 mm 1 mps 749 mmHg 80%
    23:00 +3°C° 0 mm 1 mps 749 mmHg 80%

    30 September, Sunday

    Time Temperature Precipitation Wind Pressure Humidity
    00:00 +2°C° 0 mm 1 mps 750 mmHg 80%
    01:00 +2°C° 0 mm 1 mps 750 mmHg 80%
    02:00 +1°C° 0 mm 0 mps 750 mmHg 80%
    03:00 +1°C° 0 mm 1 mps 750 mmHg 80%
    04:00 +1°C° 0 mm 1 mps 750 mmHg 81%
    05:00 +1°C° 0 mm 1 mps 750 mmHg 82%
    06:00 +2°C° 0 mm 1 mps 750 mmHg 79%
    07:00 +3°C° 0 mm 2 mps 750 mmHg 76%
    08:00 +4°C° 0 mm 2 mps 750 mmHg 73%
    09:00 +4°C° 0 mm 3 mps 750 mmHg 67%
    10:00 +7°C° 0 mm 3 mps 750 mmHg 62%
    11:00 +7°C° 0 mm 4 mps 749 mmHg 56%
    12:00 +8°C° 0 mm 4 mps 749 mmHg 56%
    13:00 +8°C° 0 mm 5 mps 749 mmHg 55%
    14:00 +9°C° 0 mm 5 mps 748 mmHg 54%
    15:00 +8°C° 0 mm 4 mps 748 mmHg 59%
    16:00 +7°C° 0 mm 4 mps 748 mmHg 64%
    17:00 +7°C° 0 mm 3 mps 747 mmHg 69%
    18:00 +5°C° 0 mm 3 mps 747 mmHg 71%
    19:00 +4°C° 0 mm 3 mps 747 mmHg 73%
    20:00 +4°C° 0 mm 3 mps 747 mmHg 75%
    21:00 +4°C° 0 mm 3 mps 747 mmHg 76%
    22:00 +3°C° 0 mm 3 mps 747 mmHg 77%
    23:00 +3°C° 0 mm 3 mps 747 mmHg 78%

    1 October, Monday

    Time Temperature Precipitation Wind Pressure Humidity
    00:00 +3°C° 0 mm 4 mps 747 mmHg 79%
    01:00 +3°C° 0 mm 4 mps 747 mmHg 80%
    02:00 +3°C° 0 mm 4 mps 746 mmHg 80%
    03:00 +3°C° 0 mm 4 mps 746 mmHg 80%
    04:00 +3°C° 0 mm 4 mps 746 mmHg 80%
    05:00 +3°C° 0 mm 4 mps 746 mmHg 80%
    06:00 +3°C° 0 mm 4 mps 746 mmHg 78%
    07:00 +4°C° 0 mm 4 mps 746 mmHg 76%
    08:00 +5°C° 0 mm 5 mps 746 mmHg 73%
    09:00 +6°C° 0 mm 5 mps 746 mmHg 69%
    10:00 +8°C° 0 mm 5 mps 746 mmHg 65%
    11:00 +9°C° 0 mm 5 mps 746 mmHg 60%
    12:00 +10°C° 0 mm 5 mps 745 mmHg 59%
    13:00 +10°C° 0 mm 5 mps 745 mmHg 58%
    14:00 +12°C° 0 mm 5 mps 745 mmHg 57%
    15:00 +11°C° 0 mm 4 mps 745 mmHg 62%
    16:00 +10°C° 0 mm 3 mps 745 mmHg 68%
    17:00 +8°C° 0 mm 3 mps 744 mmHg 73%
    18:00 +8°C° 0 mm 3 mps 745 mmHg 76%
    19:00 +7°C° 0 mm 3 mps 745 mmHg 79%
    20:00 +5°C° 0 mm 3 mps 745 mmHg 81%
    21:00 +5°C° 0 mm 2 mps 745 mmHg 82%
    22:00 +5°C° 0 mm 2 mps 745 mmHg 83%
    23:00 +5°C° 0 mm 2 mps 745 mmHg 84%
    Show more